Time,TemperatureF,DewpointF,PressureIn,WindDirection,WindDirectionDegrees,WindSpeedMPH,WindSpeedGustMPH,Humidity,HourlyPrecipIn,Conditions,Clouds,dailyrainin,SoftwareType,DateUTC
2013-10-16 00:07:00,48.0,46.7,29.81,NW,315,2.2,3.8,95,0.00,,,0.00,pywws,2013-10-16 05:07:00,
2013-10-16 00:17:00,48.0,46.9,29.80,NW,315,1.6,2.2,96,0.00,,,0.00,pywws,2013-10-16 05:17:00,
2013-10-16 00:27:00,48.0,46.9,29.81,West,270,3.8,6.9,96,0.00,,,0.00,pywws,2013-10-16 05:27:00,
2013-10-16 00:37:00,47.8,46.8,29.81,West,270,2.2,3.8,96,0.00,,,0.00,pywws,2013-10-16 05:37:00,
2013-10-16 00:47:00,47.8,46.8,29.82,West,270,3.8,6.0,96,0.00,,,0.00,pywws,2013-10-16 05:47:00,
2013-10-16 00:57:00,47.8,46.8,29.81,NW,315,3.1,5.4,96,0.00,,,0.00,pywws,2013-10-16 05:57:00,
2013-10-16 01:07:00,47.8,46.8,29.82,NW,315,3.8,6.0,96,0.00,,,0.00,pywws,2013-10-16 06:07:00,
2013-10-16 01:17:00,47.8,46.8,29.82,South,180,2.2,4.5,96,0.00,,,0.00,pywws,2013-10-16 06:17:00,
2013-10-16 01:27:00,47.8,46.8,29.82,SW,225,2.2,3.8,96,0.00,,,0.00,pywws,2013-10-16 06:27:00,
2013-10-16 01:37:00,47.8,46.8,29.82,West,270,3.1,6.9,96,0.00,,,0.00,pywws,2013-10-16 06:37:00,
2013-10-16 01:47:00,47.8,46.8,29.83,West,270,3.1,4.5,96,0.00,,,0.00,pywws,2013-10-16 06:47:00,
2013-10-16 01:57:00,47.8,46.8,29.82,North,0,2.2,5.4,96,0.00,,,0.00,pywws,2013-10-16 06:57:00,
2013-10-16 02:07:00,47.8,46.8,29.83,NW,315,3.1,6.9,96,0.00,,,0.00,pywws,2013-10-16 07:07:00,
2013-10-16 02:17:00,47.8,46.8,29.83,North,0,0.7,2.2,96,0.00,,,0.00,pywws,2013-10-16 07:17:00,
2013-10-16 02:27:00,47.8,46.8,29.83,West,270,3.1,6.0,96,0.00,,,0.00,pywws,2013-10-16 07:27:00,
2013-10-16 02:37:00,47.7,46.6,29.83,West,270,0.7,2.2,96,0.00,,,0.00,pywws,2013-10-16 07:37:00,
2013-10-16 02:47:00,47.7,46.9,29.83,North,0,1.6,3.1,97,0.00,,,0.00,pywws,2013-10-16 07:47:00,
2013-10-16 02:57:00,47.7,46.9,29.82,West,270,2.2,3.8,97,0.00,,,0.00,pywws,2013-10-16 07:57:00,
2013-10-16 03:07:00,47.7,46.9,29.82,West,270,5.4,7.6,97,0.00,,,0.00,pywws,2013-10-16 08:07:00,
2013-10-16 03:17:00,47.7,46.9,29.83,West,270,1.6,3.1,97,0.00,,,0.00,pywws,2013-10-16 08:17:00,
2013-10-16 03:27:00,47.7,46.9,29.83,SW,225,1.6,2.2,97,0.00,,,0.00,pywws,2013-10-16 08:27:00,
2013-10-16 03:37:00,47.7,46.9,29.83,SW,225,1.6,3.1,97,0.00,,,0.00,pywws,2013-10-16 08:37:00,
2013-10-16 03:47:00,47.7,46.9,29.83,NW,315,3.8,5.4,97,0.00,,,0.00,pywws,2013-10-16 08:47:00,
2013-10-16 03:57:00,47.7,46.9,29.83,West,270,1.6,2.2,97,0.00,,,0.00,pywws,2013-10-16 08:57:00,
2013-10-16 04:07:00,47.7,46.9,29.83,West,270,2.2,3.1,97,0.00,,,0.00,pywws,2013-10-16 09:07:00,
2013-10-16 04:17:00,47.7,46.9,29.83,West,270,3.1,6.9,97,0.00,,,0.00,pywws,2013-10-16 09:17:00,
2013-10-16 04:27:00,47.7,46.9,29.84,North,0,2.2,3.1,97,0.00,,,0.00,pywws,2013-10-16 09:27:00,
2013-10-16 04:37:00,47.7,46.6,29.84,NW,315,0.7,2.2,96,0.00,,,0.00,pywws,2013-10-16 09:37:00,
2013-10-16 04:47:00,47.7,46.6,29.84,NW,315,3.1,6.0,96,0.00,,,0.00,pywws,2013-10-16 09:47:00,
2013-10-16 04:57:00,47.7,46.6,29.84,SW,225,0.7,2.2,96,0.00,,,0.00,pywws,2013-10-16 09:57:00,
2013-10-16 05:07:00,47.7,46.6,29.84,SW,225,0.7,2.2,96,0.00,,,0.00,pywws,2013-10-16 10:07:00,
2013-10-16 05:17:00,47.5,46.1,29.85,West,270,2.2,5.4,95,0.00,,,0.00,pywws,2013-10-16 10:17:00,
2013-10-16 05:27:00,47.5,46.1,29.85,SW,225,1.6,2.2,95,0.00,,,0.00,pywws,2013-10-16 10:27:00,
2013-10-16 05:37:00,47.5,46.1,29.85,North,0,1.6,3.1,95,0.00,,,0.00,pywws,2013-10-16 10:37:00,
2013-10-16 05:47:00,47.5,46.1,29.85,West,270,0.7,3.1,95,0.00,,,0.00,pywws,2013-10-16 10:47:00,
2013-10-16 05:57:00,47.5,46.1,29.85,West,270,1.6,3.1,95,0.00,,,0.00,pywws,2013-10-16 10:57:00,
2013-10-16 06:07:00,47.5,46.1,29.85,West,270,0.7,2.2,95,0.00,,,0.00,pywws,2013-10-16 11:07:00,
2013-10-16 06:17:00,47.3,45.9,29.84,West,270,1.6,3.1,95,0.00,,,0.00,pywws,2013-10-16 11:17:00,
2013-10-16 06:27:00,47.3,46.2,29.85,West,270,2.2,3.8,96,0.00,,,0.00,pywws,2013-10-16 11:27:00,
2013-10-16 06:37:00,47.1,46.0,29.85,West,270,1.6,3.1,96,0.00,,,0.00,pywws,2013-10-16 11:37:00,
2013-10-16 06:47:00,46.9,46.1,29.85,NE,45,2.2,3.8,97,0.00,,,0.00,pywws,2013-10-16 11:47:00,
2013-10-16 06:57:00,46.8,46.0,29.86,West,270,0.7,1.6,97,0.00,,,0.00,pywws,2013-10-16 11:57:00,
2013-10-16 07:07:00,46.6,46.0,29.86,SW,225,0.7,1.6,98,0.00,,,0.00,pywws,2013-10-16 12:07:00,
2013-10-16 07:17:00,46.6,46.0,29.86,West,270,1.6,2.2,98,0.00,,,0.00,pywws,2013-10-16 12:17:00,
2013-10-16 07:27:00,46.6,46.0,29.85,SW,225,0.7,2.2,98,0.00,,,0.00,pywws,2013-10-16 12:27:00,
2013-10-16 07:37:00,46.8,46.2,29.86,West,270,1.6,2.2,98,0.00,,,0.00,pywws,2013-10-16 12:37:00,
2013-10-16 07:47:00,46.8,46.2,29.86,SW,225,3.1,5.4,98,0.00,,,0.00,pywws,2013-10-16 12:47:00,
2013-10-16 07:57:00,46.8,46.2,29.86,NW,315,0.7,2.2,98,0.00,,,0.00,pywws,2013-10-16 12:57:00,
2013-10-16 08:07:00,46.9,46.4,29.86,North,0,2.2,3.8,98,0.00,,,0.00,pywws,2013-10-16 13:07:00,
2013-10-16 08:17:00,46.8,46.2,29.87,NW,315,1.6,3.1,98,0.00,,,0.00,pywws,2013-10-16 13:17:00,
2013-10-16 08:27:00,46.8,46.2,29.87,SE,135,2.2,3.1,98,0.00,,,0.00,pywws,2013-10-16 13:27:00,
2013-10-16 08:37:00,46.8,46.5,29.88,SW,225,2.2,3.8,99,0.00,,,0.00,pywws,2013-10-16 13:37:00,
2013-10-16 08:47:00,46.8,46.5,29.87,West,270,1.6,2.2,99,0.00,,,0.00,pywws,2013-10-16 13:47:00,
2013-10-16 08:57:00,47.1,46.9,29.88,NE,45,2.2,3.1,99,0.00,,,0.00,pywws,2013-10-16 13:57:00,
2013-10-16 09:07:00,47.3,47.0,29.88,NW,315,1.6,2.2,99,0.00,,,0.00,pywws,2013-10-16 14:07:00,
2013-10-16 09:17:00,47.7,47.4,29.88,WNW,292,3.1,5.4,99,0.00,,,0.00,pywws,2013-10-16 14:17:00,
2013-10-16 09:27:00,47.5,46.9,29.89,SW,225,2.2,3.8,98,0.00,,,0.00,pywws,2013-10-16 14:27:00,
2013-10-16 09:37:00,47.8,47.3,29.88,North,0,1.6,3.8,98,0.00,,,0.00,pywws,2013-10-16 14:37:00,
2013-10-16 09:47:00,48.4,47.3,29.89,North,-999,0.0,1.6,96,0.00,,,0.00,pywws,2013-10-16 14:47:00,
2013-10-16 09:57:00,48.6,47.2,29.90,NW,315,1.6,3.1,95,0.00,,,0.00,pywws,2013-10-16 14:57:00,
2013-10-16 10:07:00,48.6,46.9,29.90,NW,315,0.7,1.6,94,0.00,,,0.00,pywws,2013-10-16 15:07:00,
2013-10-16 10:17:00,48.7,46.8,29.90,NE,45,0.7,2.2,93,0.00,,,0.00,pywws,2013-10-16 15:17:00,
2013-10-16 10:27:00,49.1,46.9,29.90,West,270,1.6,3.1,92,0.00,,,0.00,pywws,2013-10-16 15:27:00,
2013-10-16 10:37:00,49.1,46.9,29.90,NE,45,3.1,4.5,92,0.00,,,0.00,pywws,2013-10-16 15:37:00,
2013-10-16 10:47:00,48.9,46.7,29.90,NW,315,3.1,3.8,92,0.00,,,0.00,pywws,2013-10-16 15:47:00,
2013-10-16 10:57:00,49.1,46.9,29.91,NW,315,2.2,6.0,92,0.00,,,0.00,pywws,2013-10-16 15:57:00,
2013-10-16 11:07:00,49.1,46.9,29.91,West,270,0.7,1.6,92,0.00,,,0.00,pywws,2013-10-16 16:07:00,
2013-10-16 11:17:00,48.9,47.0,29.91,NW,315,0.7,2.2,93,0.00,,,0.00,pywws,2013-10-16 16:17:00,
2013-10-16 11:27:00,49.1,47.4,29.91,West,270,2.2,3.8,94,0.00,,,0.00,pywws,2013-10-16 16:27:00,
2013-10-16 11:37:00,49.6,48.3,29.91,West,270,1.6,3.1,95,0.00,,,0.00,pywws,2013-10-16 16:37:00,
2013-10-16 11:47:00,49.8,48.4,29.91,NW,315,1.6,2.2,95,0.00,,,0.00,pywws,2013-10-16 16:47:00,
2013-10-16 11:57:00,49.3,47.6,29.91,NW,315,0.7,2.2,94,0.00,,,0.00,pywws,2013-10-16 16:57:00,
2013-10-16 12:07:00,49.5,47.8,29.91,West,270,0.7,1.6,94,0.00,,,0.00,pywws,2013-10-16 17:07:00,
2013-10-16 12:17:00,49.6,48.0,29.91,North,-999,0.0,1.6,94,0.00,,,0.00,pywws,2013-10-16 17:17:00,
2013-10-16 12:27:00,49.6,48.0,29.91,NW,315,2.2,4.5,94,0.00,,,0.00,pywws,2013-10-16 17:27:00,
2013-10-16 12:51:00,49.5,47.8,29.91,North,-999,0.0,0.7,94,0.00,,,0.00,pywws,2013-10-16 17:51:00,
2013-10-16 12:57:00,49.6,47.7,29.91,NW,315,3.1,3.8,93,0.00,,,0.00,pywws,2013-10-16 17:57:00,
2013-10-16 13:01:00,49.6,48.0,29.91,West,270,1.6,2.2,94,0.00,,,0.00,pywws,2013-10-16 18:01:00,
2013-10-16 13:07:00,49.6,47.1,29.91,West,270,3.8,6.9,91,0.00,,,0.00,pywws,2013-10-16 18:07:00,
2013-10-16 13:17:00,49.8,47.3,29.90,NW,315,2.2,3.8,91,0.00,,,0.00,pywws,2013-10-16 18:17:00,
2013-10-16 13:37:00,50.2,46.5,29.90,NW,315,2.2,3.8,87,0.00,,,0.00,pywws,2013-10-16 18:37:00,
2013-10-16 13:41:00,50.5,47.4,29.90,NW,315,1.6,3.8,89,0.00,,,0.00,pywws,2013-10-16 18:41:00,
2013-10-16 14:01:00,50.4,46.6,29.90,NW,315,2.2,4.5,87,0.00,,,0.00,pywws,2013-10-16 19:01:00,
2013-10-16 14:07:00,49.1,46.0,29.90,North,0,3.1,7.6,89,0.00,,,0.00,pywws,2013-10-16 19:07:00,
2013-10-16 14:11:00,50.0,46.3,29.90,North,0,3.1,5.4,87,0.00,,,0.00,pywws,2013-10-16 19:11:00,
2013-10-16 14:17:00,49.3,46.5,29.90,North,0,2.2,3.1,90,0.00,,,0.00,pywws,2013-10-16 19:17:00,
2013-10-16 14:27:00,49.6,46.8,29.90,West,270,2.2,3.1,90,0.00,,,0.00,pywws,2013-10-16 19:27:00,
2013-10-16 14:37:00,49.5,46.4,29.91,NNW,338,2.2,4.5,89,0.00,,,0.00,pywws,2013-10-16 19:37:00,
2013-10-16 14:47:00,49.3,46.2,29.90,North,0,3.1,4.5,89,0.00,,,0.00,pywws,2013-10-16 19:47:00,
2013-10-16 15:07:00,48.4,46.2,29.91,SW,225,0.7,1.6,92,0.00,,,0.00,pywws,2013-10-16 20:07:00,
2013-10-16 15:11:00,48.7,45.9,29.91,West,270,1.6,2.2,90,0.00,,,0.00,pywws,2013-10-16 20:11:00,
2013-10-16 15:17:00,48.2,46.3,29.91,NW,315,0.7,1.6,93,0.00,,,0.00,pywws,2013-10-16 20:17:00,
2013-10-16 15:27:00,48.0,46.7,29.91,SW,225,2.2,3.8,95,0.00,,,0.00,pywws,2013-10-16 20:27:00,
2013-10-16 15:37:00,47.5,46.1,29.91,SW,225,1.6,2.2,95,0.00,,,0.00,pywws,2013-10-16 20:37:00,
2013-10-16 15:47:00,48.0,46.7,29.91,North,-999,0.0,0.7,95,0.00,,,0.00,pywws,2013-10-16 20:47:00,
2013-10-16 16:11:00,48.6,46.9,29.91,NW,315,2.2,5.4,94,0.00,,,0.00,pywws,2013-10-16 21:11:00,
2013-10-16 16:17:00,48.7,47.1,29.90,West,270,2.2,4.5,94,0.00,,,0.00,pywws,2013-10-16 21:17:00,
2013-10-16 16:21:00,48.6,46.9,29.90,NW,315,1.6,2.2,94,0.00,,,0.00,pywws,2013-10-16 21:21:00,
2013-10-16 16:47:00,48.2,46.0,29.90,West,270,0.7,3.1,92,0.00,,,0.00,pywws,2013-10-16 21:47:00,
2013-10-16 16:51:00,48.6,46.1,29.90,North,-999,0.0,1.6,91,0.00,,,0.00,pywws,2013-10-16 21:51:00,
2013-10-16 16:57:00,48.4,46.2,29.90,North,-999,0.0,1.6,92,0.00,,,0.00,pywws,2013-10-16 21:57:00,
2013-10-16 17:07:00,48.4,46.2,29.90,SW,225,1.6,2.2,92,0.00,,,0.00,pywws,2013-10-16 22:07:00,
2013-10-16 17:17:00,48.6,46.3,29.90,North,-999,0.0,0.7,92,0.00,,,0.00,pywws,2013-10-16 22:17:00,
2013-10-16 17:41:00,48.6,46.1,29.90,North,-999,0.0,1.6,91,0.00,,,0.00,pywws,2013-10-16 22:41:00,
2013-10-16 17:47:00,48.4,45.6,29.89,North,-999,0.0,1.6,90,0.00,,,0.00,pywws,2013-10-16 22:47:00,
2013-10-16 17:51:00,48.4,45.9,29.90,NW,315,1.6,2.2,91,0.00,,,0.00,pywws,2013-10-16 22:51:00,
2013-10-16 17:57:00,48.2,45.4,29.90,NW,315,0.7,1.6,90,0.00,,,0.00,pywws,2013-10-16 22:57:00,
2013-10-16 18:21:00,48.2,45.4,29.90,West,270,0.7,2.2,90,0.00,,,0.00,pywws,2013-10-16 23:21:00,
2013-10-16 18:31:00,48.0,45.2,29.90,SW,225,0.7,1.6,90,0.00,,,0.00,pywws,2013-10-16 23:31:00,
2013-10-16 18:37:00,47.7,45.2,29.91,North,-999,0.0,0.7,91,0.00,,,0.00,pywws,2013-10-16 23:37:00,
2013-10-16 19:01:00,47.5,45.0,29.91,North,-999,0.0,1.6,91,0.00,,,0.00,pywws,2013-10-17 00:01:00,
2013-10-16 19:11:00,47.3,44.8,29.90,North,-999,0.0,0.7,91,0.00,,,0.00,pywws,2013-10-17 00:11:00,
2013-10-16 19:21:00,47.3,44.8,29.91,North,-999,0.0,0.7,91,0.00,,,0.00,pywws,2013-10-17 00:21:00,
2013-10-16 19:27:00,47.3,44.8,29.91,WSW,248,0.7,1.6,91,0.00,,,0.00,pywws,2013-10-17 00:27:00,
2013-10-16 19:31:00,47.3,44.8,29.91,North,-999,0.0,0.7,91,0.00,,,0.00,pywws,2013-10-17 00:31:00,
2013-10-16 19:37:00,47.1,44.9,29.91,North,-999,0.0,0.0,92,0.00,,,0.00,pywws,2013-10-17 00:37:00,
2013-10-16 19:47:00,47.1,44.9,29.91,WSW,248,0.7,1.6,92,0.00,,,0.00,pywws,2013-10-17 00:47:00,
2013-10-16 20:07:00,46.9,45.0,29.91,North,-999,0.0,0.7,93,0.00,,,0.00,pywws,2013-10-17 01:07:00,
2013-10-16 20:11:00,47.1,44.9,29.91,North,-999,0.0,0.0,92,0.00,,,0.00,pywws,2013-10-17 01:11:00,
2013-10-16 20:31:00,46.9,45.0,29.92,West,270,0.7,1.6,93,0.00,,,0.00,pywws,2013-10-17 01:31:00,
2013-10-16 20:37:00,46.9,45.0,29.92,North,-999,0.0,0.7,93,0.00,,,0.00,pywws,2013-10-17 01:37:00,
2013-10-16 20:41:00,46.9,45.0,29.92,North,-999,0.0,0.7,93,0.00,,,0.00,pywws,2013-10-17 01:41:00,
2013-10-16 20:47:00,46.9,45.0,29.93,South,180,0.7,1.6,93,0.00,,,0.00,pywws,2013-10-17 01:47:00,
2013-10-16 21:11:00,46.9,45.0,29.93,North,-999,0.0,0.0,93,0.00,,,0.00,pywws,2013-10-17 02:11:00,
2013-10-16 21:21:00,46.9,45.0,29.93,North,-999,0.0,0.0,93,0.00,,,0.00,pywws,2013-10-17 02:21:00,
2013-10-16 21:31:00,46.8,44.8,29.92,North,-999,0.0,0.0,93,0.00,,,0.00,pywws,2013-10-17 02:31:00,
2013-10-16 21:41:00,46.8,44.8,29.92,North,-999,0.0,0.0,93,0.00,,,0.00,pywws,2013-10-17 02:41:00,
2013-10-16 21:51:00,46.6,44.7,29.92,North,-999,0.0,0.0,93,0.00,,,0.00,pywws,2013-10-17 02:51:00,
2013-10-16 21:57:00,46.6,44.9,29.92,North,-999,0.0,0.7,94,0.00,,,0.00,pywws,2013-10-17 02:57:00,
2013-10-16 22:01:00,46.6,44.7,29.91,North,-999,0.0,0.0,93,0.00,,,0.00,pywws,2013-10-17 03:01:00,
2013-10-16 22:21:00,46.6,44.9,29.93,North,-999,0.0,0.0,94,0.00,,,0.00,pywws,2013-10-17 03:21:00,
2013-10-16 22:27:00,46.6,44.9,29.92,North,-999,0.0,0.0,94,0.00,,,0.00,pywws,2013-10-17 03:27:00,
2013-10-16 22:31:00,46.6,44.9,29.92,North,-999,0.0,0.0,94,0.00,,,0.00,pywws,2013-10-17 03:31:00,
2013-10-16 22:47:00,46.4,45.0,29.92,North,-999,0.0,0.7,95,0.00,,,0.00,pywws,2013-10-17 03:47:00,
2013-10-16 22:51:00,46.6,45.2,29.92,North,-999,0.0,0.0,95,0.00,,,0.00,pywws,2013-10-17 03:51:00,
2013-10-16 22:57:00,46.6,45.2,29.92,North,-999,0.0,0.0,95,0.00,,,0.00,pywws,2013-10-17 03:57:00,
2013-10-16 23:07:00,46.6,45.2,29.92,North,-999,0.0,0.0,95,0.00,,,0.00,pywws,2013-10-17 04:07:00,
2013-10-16 23:17:00,46.6,45.2,29.91,North,-999,0.0,0.0,95,0.00,,,0.00,pywws,2013-10-17 04:17:00,
2013-10-16 23:27:00,46.4,45.0,29.91,North,-999,0.0,0.0,95,0.00,,,0.00,pywws,2013-10-17 04:27:00,
2013-10-16 23:37:00,45.9,44.5,29.91,North,-999,0.0,0.0,95,0.00,,,0.00,pywws,2013-10-17 04:37:00,
2013-10-16 23:47:00,45.7,44.3,29.91,North,-999,0.0,0.7,95,0.00,,,0.00,pywws,2013-10-17 04:47:00,
2013-10-16 23:57:00,45.7,44.6,29.91,North,-999,0.0,0.0,96,0.00,,,0.00,pywws,2013-10-17 04:57:00,